owner,sensor,date,latitude,longitude,vertical_datum,sea_water_temperature,qcFlag 
DISL,ioos:station:DISL:DISL:1,2015-11-01T00:00:00Z,30.2513,-88.0778,-1.72,22.33,2 
DISL,ioos:station:DISL:DISL:1,2015-11-01T00:30:00Z,30.2513,-88.0778,-1.72,22.33,2 
DISL,ioos:station:DISL:DISL:1,2015-11-01T01:00:00Z,30.2513,-88.0778,-1.72,22.31,2 
DISL,ioos:station:DISL:DISL:1,2015-11-01T01:30:00Z,30.2513,-88.0778,-1.72,22.38,2 
DISL,ioos:station:DISL:DISL:1,2015-11-01T02:00:00Z,30.2513,-88.0778,-1.72,22.45,2 
DISL,ioos:station:DISL:DISL:1,2015-11-01T02:30:00Z,30.2513,-88.0778,-1.72,22.58,2 
DISL,ioos:station:DISL:DISL:1,2015-11-01T03:00:00Z,30.2513,-88.0778,-1.72,22.62,2 
DISL,ioos:station:DISL:DISL:1,2015-11-01T03:30:00Z,30.2513,-88.0778,-1.72,22.37,2 
DISL,ioos:station:DISL:DISL:1,2015-11-01T04:00:00Z,30.2513,-88.0778,-1.72,22.38,2 
DISL,ioos:station:DISL:DISL:1,2015-11-01T04:30:00Z,30.2513,-88.0778,-1.72,22.14,2 
DISL,ioos:station:DISL:DISL:1,2015-11-01T05:00:00Z,30.2513,-88.0778,-1.72,22.17,2 
DISL,ioos:station:DISL:DISL:1,2015-11-01T05:30:00Z,30.2513,-88.0778,-1.72,22.16,2 
DISL,ioos:station:DISL:DISL:1,2015-11-01T06:00:00Z,30.2513,-88.0778,-1.72,22.18,2 
DISL,ioos:station:DISL:DISL:1,2015-11-01T06:30:00Z,30.2513,-88.0778,-1.72,22.17,2 
DISL,ioos:station:DISL:DISL:1,2015-11-01T07:00:00Z,30.2513,-88.0778,-1.72,22.25,2 
DISL,ioos:station:DISL:DISL:1,2015-11-01T07:30:00Z,30.2513,-88.0778,-1.72,22.31,2 
DISL,ioos:station:DISL:DISL:1,2015-11-01T08:00:00Z,30.2513,-88.0778,-1.72,22.27,2 
DISL,ioos:station:DISL:DISL:1,2015-11-01T08:30:00Z,30.2513,-88.0778,-1.72,22.38,2 
DISL,ioos:station:DISL:DISL:1,2015-11-01T09:00:00Z,30.2513,-88.0778,-1.72,22.51,2 
DISL,ioos:station:DISL:DISL:1,2015-11-01T09:30:00Z,30.2513,-88.0778,-1.72,22.49,2 
DISL,ioos:station:DISL:DISL:1,2015-11-01T10:00:00Z,30.2513,-88.0778,-1.72,22.44,2 
DISL,ioos:station:DISL:DISL:1,2015-11-01T10:30:00Z,30.2513,-88.0778,-1.72,22.43,2 
DISL,ioos:station:DISL:DISL:1,2015-11-01T11:00:00Z,30.2513,-88.0778,-1.72,22.37,2 
DISL,ioos:station:DISL:DISL:1,2015-11-01T11:30:00Z,30.2513,-88.0778,-1.72,22.34,2 
DISL,ioos:station:DISL:DISL:1,2015-11-01T12:00:00Z,30.2513,-88.0778,-1.72,22.18,2 
DISL,ioos:station:DISL:DISL:1,2015-11-01T12:30:00Z,30.2513,-88.0778,-1.72,21.95,2 
DISL,ioos:station:DISL:DISL:1,2015-11-01T13:00:00Z,30.2513,-88.0778,-1.72,21.89,2 
DISL,ioos:station:DISL:DISL:1,2015-11-01T13:30:00Z,30.2513,-88.0778,-1.72,21.88,2 
DISL,ioos:station:DISL:DISL:1,2015-11-01T14:00:00Z,30.2513,-88.0778,-1.72,21.86,2 
DISL,ioos:station:DISL:DISL:1,2015-11-01T14:30:00Z,30.2513,-88.0778,-1.72,21.8,2 
DISL,ioos:station:DISL:DISL:1,2015-11-01T15:00:00Z,30.2513,-88.0778,-1.72,21.81,2 
DISL,ioos:station:DISL:DISL:1,2015-11-01T15:30:00Z,30.2513,-88.0778,-1.72,21.8,2 
DISL,ioos:station:DISL:DISL:1,2015-11-01T16:00:00Z,30.2513,-88.0778,-1.72,21.8,2 
DISL,ioos:station:DISL:DISL:1,2015-11-01T16:30:00Z,30.2513,-88.0778,-1.72,21.8,2 
DISL,ioos:station:DISL:DISL:1,2015-11-01T17:00:00Z,30.2513,-88.0778,-1.72,21.8,2 
DISL,ioos:station:DISL:DISL:1,2015-11-01T17:30:00Z,30.2513,-88.0778,-1.72,21.71,2 
DISL,ioos:station:DISL:DISL:1,2015-11-01T18:00:00Z,30.2513,-88.0778,-1.72,21.59,2 
DISL,ioos:station:DISL:DISL:1,2015-11-01T18:30:00Z,30.2513,-88.0778,-1.72,21.57,2 
DISL,ioos:station:DISL:DISL:1,2015-11-01T19:00:00Z,30.2513,-88.0778,-1.72,21.43,2 
DISL,ioos:station:DISL:DISL:1,2015-11-01T19:30:00Z,30.2513,-88.0778,-1.72,21.54,2 
DISL,ioos:station:DISL:DISL:1,2015-11-01T20:00:00Z,30.2513,-88.0778,-1.72,21.56,2 
DISL,ioos:station:DISL:DISL:1,2015-11-01T20:30:00Z,30.2513,-88.0778,-1.72,21.53,2 
DISL,ioos:station:DISL:DISL:1,2015-11-01T21:00:00Z,30.2513,-88.0778,-1.72,21.54,2 
DISL,ioos:station:DISL:DISL:1,2015-11-01T21:30:00Z,30.2513,-88.0778,-1.72,21.36,2 
DISL,ioos:station:DISL:DISL:1,2015-11-01T22:00:00Z,30.2513,-88.0778,-1.72,21.36,2 
DISL,ioos:station:DISL:DISL:1,2015-11-01T22:30:00Z,30.2513,-88.0778,-1.72,21.43,2 
DISL,ioos:station:DISL:DISL:1,2015-11-01T23:00:00Z,30.2513,-88.0778,-1.72,21.66,2 
DISL,ioos:station:DISL:DISL:1,2015-11-01T23:30:00Z,30.2513,-88.0778,-1.72,21.57,2 
DISL,ioos:station:DISL:DISL:1,2015-11-02T00:00:00Z,30.2513,-88.0778,-1.72,21.52,2 
DISL,ioos:station:DISL:DISL:1,2015-11-02T00:30:00Z,30.2513,-88.0778,-1.72,21.52,2 
DISL,ioos:station:DISL:DISL:1,2015-11-02T01:00:00Z,30.2513,-88.0778,-1.72,21.56,2 
DISL,ioos:station:DISL:DISL:1,2015-11-02T01:30:00Z,30.2513,-88.0778,-1.72,21.53,2 
DISL,ioos:station:DISL:DISL:1,2015-11-02T02:00:00Z,30.2513,-88.0778,-1.72,21.5,2 
DISL,ioos:station:DISL:DISL:1,2015-11-02T02:30:00Z,30.2513,-88.0778,-1.72,21.49,2 
DISL,ioos:station:DISL:DISL:1,2015-11-02T03:00:00Z,30.2513,-88.0778,-1.72,21.44,2 
DISL,ioos:station:DISL:DISL:1,2015-11-02T03:30:00Z,30.2513,-88.0778,-1.72,21.34,2 
DISL,ioos:station:DISL:DISL:1,2015-11-02T04:00:00Z,30.2513,-88.0778,-1.72,21.47,2 
DISL,ioos:station:DISL:DISL:1,2015-11-02T04:30:00Z,30.2513,-88.0778,-1.72,21.21,2 
DISL,ioos:station:DISL:DISL:1,2015-11-02T05:00:00Z,30.2513,-88.0778,-1.72,21.5,2 
DISL,ioos:station:DISL:DISL:1,2015-11-02T05:30:00Z,30.2513,-88.0778,-1.72,21.46,2 
DISL,ioos:station:DISL:DISL:1,2015-11-02T06:00:00Z,30.2513,-88.0778,-1.72,21.39,2 
DISL,ioos:station:DISL:DISL:1,2015-11-02T06:30:00Z,30.2513,-88.0778,-1.72,21.52,2 
DISL,ioos:station:DISL:DISL:1,2015-11-02T07:00:00Z,30.2513,-88.0778,-1.72,21.1,2 
DISL,ioos:station:DISL:DISL:1,2015-11-02T07:30:00Z,30.2513,-88.0778,-1.72,21.02,2 
DISL,ioos:station:DISL:DISL:1,2015-11-02T08:00:00Z,30.2513,-88.0778,-1.72,21.55,2 
DISL,ioos:station:DISL:DISL:1,2015-11-02T08:30:00Z,30.2513,-88.0778,-1.72,21.34,2 
DISL,ioos:station:DISL:DISL:1,2015-11-02T09:00:00Z,30.2513,-88.0778,-1.72,21.07,2 
DISL,ioos:station:DISL:DISL:1,2015-11-02T09:30:00Z,30.2513,-88.0778,-1.72,21.23,2 
DISL,ioos:station:DISL:DISL:1,2015-11-02T10:00:00Z,30.2513,-88.0778,-1.72,21.2,2 
DISL,ioos:station:DISL:DISL:1,2015-11-02T10:30:00Z,30.2513,-88.0778,-1.72,21.11,2 
DISL,ioos:station:DISL:DISL:1,2015-11-02T11:00:00Z,30.2513,-88.0778,-1.72,21.08,2 
DISL,ioos:station:DISL:DISL:1,2015-11-02T11:30:00Z,30.2513,-88.0778,-1.72,21.08,2 
DISL,ioos:station:DISL:DISL:1,2015-11-02T12:00:00Z,30.2513,-88.0778,-1.72,21.06,2 
DISL,ioos:station:DISL:DISL:1,2015-11-02T12:30:00Z,30.2513,-88.0778,-1.72,21.1,2 
DISL,ioos:station:DISL:DISL:1,2015-11-02T13:00:00Z,30.2513,-88.0778,-1.72,21.29,2 
DISL,ioos:station:DISL:DISL:1,2015-11-02T13:30:00Z,30.2513,-88.0778,-1.72,21.35,2 
DISL,ioos:station:DISL:DISL:1,2015-11-02T14:00:00Z,30.2513,-88.0778,-1.72,21.39,2 
DISL,ioos:station:DISL:DISL:1,2015-11-02T14:30:00Z,30.2513,-88.0778,-1.72,21.45,2 
DISL,ioos:station:DISL:DISL:1,2015-11-02T15:00:00Z,30.2513,-88.0778,-1.72,21.52,2 
DISL,ioos:station:DISL:DISL:1,2015-11-02T15:30:00Z,30.2513,-88.0778,-1.72,21.6,2 
DISL,ioos:station:DISL:DISL:1,2015-11-02T16:00:00Z,30.2513,-88.0778,-1.72,21.72,2 
DISL,ioos:station:DISL:DISL:1,2015-11-02T16:30:00Z,30.2513,-88.0778,-1.72,21.9,2 
DISL,ioos:station:DISL:DISL:1,2015-11-02T17:00:00Z,30.2513,-88.0778,-1.72,22.02,2 
DISL,ioos:station:DISL:DISL:1,2015-11-02T17:30:00Z,30.2513,-88.0778,-1.72,22.11,2 
DISL,ioos:station:DISL:DISL:1,2015-11-02T18:00:00Z,30.2513,-88.0778,-1.72,22.23,2 
DISL,ioos:station:DISL:DISL:1,2015-11-02T18:30:00Z,30.2513,-88.0778,-1.72,22.32,2 
DISL,ioos:station:DISL:DISL:1,2015-11-02T19:00:00Z,30.2513,-88.0778,-1.72,22.83,2 
DISL,ioos:station:DISL:DISL:1,2015-11-02T19:30:00Z,30.2513,-88.0778,-1.72,22.68,2 
DISL,ioos:station:DISL:DISL:1,2015-11-02T20:00:00Z,30.2513,-88.0778,-1.72,22.61,2 
DISL,ioos:station:DISL:DISL:1,2015-11-02T20:30:00Z,30.2513,-88.0778,-1.72,22.64,2 
DISL,ioos:station:DISL:DISL:1,2015-11-02T21:00:00Z,30.2513,-88.0778,-1.72,22.75,2 
DISL,ioos:station:DISL:DISL:1,2015-11-02T21:30:00Z,30.2513,-88.0778,-1.72,22.81,2 
DISL,ioos:station:DISL:DISL:1,2015-11-02T22:00:00Z,30.2513,-88.0778,-1.72,23.09,2 
DISL,ioos:station:DISL:DISL:1,2015-11-02T22:30:00Z,30.2513,-88.0778,-1.72,22.95,2 
DISL,ioos:station:DISL:DISL:1,2015-11-02T23:00:00Z,30.2513,-88.0778,-1.72,22.84,2 
DISL,ioos:station:DISL:DISL:1,2015-11-02T23:30:00Z,30.2513,-88.0778,-1.72,22.86,2 
DISL,ioos:station:DISL:DISL:1,2015-11-03T00:00:00Z,30.2513,-88.0778,-1.72,22.84,2 
DISL,ioos:station:DISL:DISL:1,2015-11-03T00:30:00Z,30.2513,-88.0778,-1.72,22.79,2 
DISL,ioos:station:DISL:DISL:1,2015-11-03T01:00:00Z,30.2513,-88.0778,-1.72,22.78,2 
DISL,ioos:station:DISL:DISL:1,2015-11-03T01:30:00Z,30.2513,-88.0778,-1.72,22.88,2 
DISL,ioos:station:DISL:DISL:1,2015-11-03T02:00:00Z,30.2513,-88.0778,-1.72,22.48,2 
DISL,ioos:station:DISL:DISL:1,2015-11-03T02:30:00Z,30.2513,-88.0778,-1.72,22.17,2 
DISL,ioos:station:DISL:DISL:1,2015-11-03T03:00:00Z,30.2513,-88.0778,-1.72,22.3,2 
DISL,ioos:station:DISL:DISL:1,2015-11-03T03:30:00Z,30.2513,-88.0778,-1.72,22.21,2 
DISL,ioos:station:DISL:DISL:1,2015-11-03T04:00:00Z,30.2513,-88.0778,-1.72,22.47,2 
DISL,ioos:station:DISL:DISL:1,2015-11-03T04:30:00Z,30.2513,-88.0778,-1.72,22.41,2 
DISL,ioos:station:DISL:DISL:1,2015-11-03T05:00:00Z,30.2513,-88.0778,-1.72,22.49,2 
DISL,ioos:station:DISL:DISL:1,2015-11-03T05:30:00Z,30.2513,-88.0778,-1.72,22.66,2 
DISL,ioos:station:DISL:DISL:1,2015-11-03T06:00:00Z,30.2513,-88.0778,-1.72,22.64,2 
DISL,ioos:station:DISL:DISL:1,2015-11-03T06:30:00Z,30.2513,-88.0778,-1.72,22.59,2 
DISL,ioos:station:DISL:DISL:1,2015-11-03T07:00:00Z,30.2513,-88.0778,-1.72,22.48,2 
DISL,ioos:station:DISL:DISL:1,2015-11-03T07:30:00Z,30.2513,-88.0778,-1.72,22.39,2 
DISL,ioos:station:DISL:DISL:1,2015-11-03T08:00:00Z,30.2513,-88.0778,-1.72,22.36,2 
DISL,ioos:station:DISL:DISL:1,2015-11-03T08:30:00Z,30.2513,-88.0778,-1.72,22.29,2 
DISL,ioos:station:DISL:DISL:1,2015-11-03T09:00:00Z,30.2513,-88.0778,-1.72,22.24,2 
DISL,ioos:station:DISL:DISL:1,2015-11-03T09:30:00Z,30.2513,-88.0778,-1.72,22.19,2 
DISL,ioos:station:DISL:DISL:1,2015-11-03T10:00:00Z,30.2513,-88.0778,-1.72,22.15,2 
DISL,ioos:station:DISL:DISL:1,2015-11-03T10:30:00Z,30.2513,-88.0778,-1.72,22.14,2 
DISL,ioos:station:DISL:DISL:1,2015-11-03T11:00:00Z,30.2513,-88.0778,-1.72,21.99,2 
DISL,ioos:station:DISL:DISL:1,2015-11-03T11:30:00Z,30.2513,-88.0778,-1.72,22.14,2 
DISL,ioos:station:DISL:DISL:1,2015-11-03T12:00:00Z,30.2513,-88.0778,-1.72,22.11,2 
DISL,ioos:station:DISL:DISL:1,2015-11-03T12:30:00Z,30.2513,-88.0778,-1.72,22.09,2 
DISL,ioos:station:DISL:DISL:1,2015-11-03T13:00:00Z,30.2513,-88.0778,-1.72,22.02,2 
DISL,ioos:station:DISL:DISL:1,2015-11-03T13:30:00Z,30.2513,-88.0778,-1.72,22.01,2 
DISL,ioos:station:DISL:DISL:1,2015-11-03T14:00:00Z,30.2513,-88.0778,-1.72,22.0,2 
DISL,ioos:station:DISL:DISL:1,2015-11-03T14:30:00Z,30.2513,-88.0778,-1.72,22.03,2 
DISL,ioos:station:DISL:DISL:1,2015-11-03T15:00:00Z,30.2513,-88.0778,-1.72,22.04,2 
DISL,ioos:station:DISL:DISL:1,2015-11-03T15:30:00Z,30.2513,-88.0778,-1.72,22.02,2 
DISL,ioos:station:DISL:DISL:1,2015-11-03T16:00:00Z,30.2513,-88.0778,-1.72,21.83,2 
DISL,ioos:station:DISL:DISL:1,2015-11-03T16:30:00Z,30.2513,-88.0778,-1.72,21.88,2 
DISL,ioos:station:DISL:DISL:1,2015-11-03T17:00:00Z,30.2513,-88.0778,-1.72,22.01,2 
DISL,ioos:station:DISL:DISL:1,2015-11-03T17:30:00Z,30.2513,-88.0778,-1.72,22.18,2 
DISL,ioos:station:DISL:DISL:1,2015-11-03T18:00:00Z,30.2513,-88.0778,-1.72,22.35,2 
DISL,ioos:station:DISL:DISL:1,2015-11-03T18:30:00Z,30.2513,-88.0778,-1.72,22.61,2 
DISL,ioos:station:DISL:DISL:1,2015-11-03T19:00:00Z,30.2513,-88.0778,-1.72,22.86,2 
DISL,ioos:station:DISL:DISL:1,2015-11-03T19:30:00Z,30.2513,-88.0778,-1.72,23.09,2 
DISL,ioos:station:DISL:DISL:1,2015-11-03T20:00:00Z,30.2513,-88.0778,-1.72,23.09,2 
DISL,ioos:station:DISL:DISL:1,2015-11-03T20:30:00Z,30.2513,-88.0778,-1.72,23.17,2 
DISL,ioos:station:DISL:DISL:1,2015-11-03T21:00:00Z,30.2513,-88.0778,-1.72,23.15,2 
DISL,ioos:station:DISL:DISL:1,2015-11-03T21:30:00Z,30.2513,-88.0778,-1.72,22.97,2 
DISL,ioos:station:DISL:DISL:1,2015-11-03T22:00:00Z,30.2513,-88.0778,-1.72,22.84,2 
DISL,ioos:station:DISL:DISL:1,2015-11-03T22:30:00Z,30.2513,-88.0778,-1.72,22.66,2 
DISL,ioos:station:DISL:DISL:1,2015-11-03T23:00:00Z,30.2513,-88.0778,-1.72,22.67,2 
DISL,ioos:station:DISL:DISL:1,2015-11-03T23:30:00Z,30.2513,-88.0778,-1.72,22.57,2 
DISL,ioos:station:DISL:DISL:1,2015-11-04T00:00:00Z,30.2513,-88.0778,-1.72,22.46,2 
DISL,ioos:station:DISL:DISL:1,2015-11-04T00:30:00Z,30.2513,-88.0778,-1.72,22.42,2 
DISL,ioos:station:DISL:DISL:1,2015-11-04T01:00:00Z,30.2513,-88.0778,-1.72,22.43,2 
DISL,ioos:station:DISL:DISL:1,2015-11-04T01:30:00Z,30.2513,-88.0778,-1.72,22.42,2 
DISL,ioos:station:DISL:DISL:1,2015-11-04T02:00:00Z,30.2513,-88.0778,-1.72,22.43,2 
DISL,ioos:station:DISL:DISL:1,2015-11-04T02:30:00Z,30.2513,-88.0778,-1.72,22.46,2 
DISL,ioos:station:DISL:DISL:1,2015-11-04T03:00:00Z,30.2513,-88.0778,-1.72,22.53,2 
DISL,ioos:station:DISL:DISL:1,2015-11-04T03:30:00Z,30.2513,-88.0778,-1.72,22.51,2 
DISL,ioos:station:DISL:DISL:1,2015-11-04T04:00:00Z,30.2513,-88.0778,-1.72,22.87,2 
DISL,ioos:station:DISL:DISL:1,2015-11-04T04:30:00Z,30.2513,-88.0778,-1.72,23.03,2 
DISL,ioos:station:DISL:DISL:1,2015-11-04T05:00:00Z,30.2513,-88.0778,-1.72,23.08,2 
DISL,ioos:station:DISL:DISL:1,2015-11-04T05:30:00Z,30.2513,-88.0778,-1.72,23.05,2 
DISL,ioos:station:DISL:DISL:1,2015-11-04T06:00:00Z,30.2513,-88.0778,-1.72,22.77,2 
DISL,ioos:station:DISL:DISL:1,2015-11-04T06:30:00Z,30.2513,-88.0778,-1.72,22.43,2 
DISL,ioos:station:DISL:DISL:1,2015-11-04T07:00:00Z,30.2513,-88.0778,-1.72,22.43,2 
DISL,ioos:station:DISL:DISL:1,2015-11-04T07:30:00Z,30.2513,-88.0778,-1.72,22.54,2 
DISL,ioos:station:DISL:DISL:1,2015-11-04T08:00:00Z,30.2513,-88.0778,-1.72,23.01,2 
DISL,ioos:station:DISL:DISL:1,2015-11-04T08:30:00Z,30.2513,-88.0778,-1.72,22.93,2 
DISL,ioos:station:DISL:DISL:1,2015-11-04T09:00:00Z,30.2513,-88.0778,-1.72,22.94,2 
DISL,ioos:station:DISL:DISL:1,2015-11-04T09:30:00Z,30.2513,-88.0778,-1.72,22.84,2 
DISL,ioos:station:DISL:DISL:1,2015-11-04T10:00:00Z,30.2513,-88.0778,-1.72,22.72,2 
DISL,ioos:station:DISL:DISL:1,2015-11-04T10:30:00Z,30.2513,-88.0778,-1.72,22.68,2 
DISL,ioos:station:DISL:DISL:1,2015-11-04T11:00:00Z,30.2513,-88.0778,-1.72,22.66,2 
DISL,ioos:station:DISL:DISL:1,2015-11-04T11:30:00Z,30.2513,-88.0778,-1.72,22.66,2 
DISL,ioos:station:DISL:DISL:1,2015-11-04T12:00:00Z,30.2513,-88.0778,-1.72,22.69,2 
DISL,ioos:station:DISL:DISL:1,2015-11-04T12:30:00Z,30.2513,-88.0778,-1.72,22.64,2 
DISL,ioos:station:DISL:DISL:1,2015-11-04T13:00:00Z,30.2513,-88.0778,-1.72,22.64,2 
DISL,ioos:station:DISL:DISL:1,2015-11-04T13:30:00Z,30.2513,-88.0778,-1.72,22.61,2 
DISL,ioos:station:DISL:DISL:1,2015-11-04T14:00:00Z,30.2513,-88.0778,-1.72,22.62,2 
DISL,ioos:station:DISL:DISL:1,2015-11-04T14:30:00Z,30.2513,-88.0778,-1.72,22.67,2 
DISL,ioos:station:DISL:DISL:1,2015-11-04T15:00:00Z,30.2513,-88.0778,-1.72,22.76,2 
DISL,ioos:station:DISL:DISL:1,2015-11-04T15:30:00Z,30.2513,-88.0778,-1.72,22.87,2 
DISL,ioos:station:DISL:DISL:1,2015-11-04T16:00:00Z,30.2513,-88.0778,-1.72,23.0,2 
DISL,ioos:station:DISL:DISL:1,2015-11-04T16:30:00Z,30.2513,-88.0778,-1.72,23.0,2 
DISL,ioos:station:DISL:DISL:1,2015-11-04T17:00:00Z,30.2513,-88.0778,-1.72,22.86,2 
DISL,ioos:station:DISL:DISL:1,2015-11-04T17:30:00Z,30.2513,-88.0778,-1.72,22.83,2 
DISL,ioos:station:DISL:DISL:1,2015-11-04T18:00:00Z,30.2513,-88.0778,-1.72,23.04,2 
DISL,ioos:station:DISL:DISL:1,2015-11-04T18:30:00Z,30.2513,-88.0778,-1.72,22.9,2 
DISL,ioos:station:DISL:DISL:1,2015-11-04T19:00:00Z,30.2513,-88.0778,-1.72,22.96,2 
DISL,ioos:station:DISL:DISL:1,2015-11-04T19:30:00Z,30.2513,-88.0778,-1.72,23.05,2 
DISL,ioos:station:DISL:DISL:1,2015-11-04T20:00:00Z,30.2513,-88.0778,-1.72,23.15,2 
DISL,ioos:station:DISL:DISL:1,2015-11-04T20:30:00Z,30.2513,-88.0778,-1.72,23.01,2 
DISL,ioos:station:DISL:DISL:1,2015-11-04T21:00:00Z,30.2513,-88.0778,-1.72,22.92,2 
DISL,ioos:station:DISL:DISL:1,2015-11-04T21:30:00Z,30.2513,-88.0778,-1.72,22.59,2 
DISL,ioos:station:DISL:DISL:1,2015-11-04T22:00:00Z,30.2513,-88.0778,-1.72,22.68,2 
DISL,ioos:station:DISL:DISL:1,2015-11-04T22:30:00Z,30.2513,-88.0778,-1.72,22.73,2 
DISL,ioos:station:DISL:DISL:1,2015-11-04T23:00:00Z,30.2513,-88.0778,-1.72,22.89,2 
DISL,ioos:station:DISL:DISL:1,2015-11-04T23:30:00Z,30.2513,-88.0778,-1.72,22.88,2 
DISL,ioos:station:DISL:DISL:1,2015-11-05T00:00:00Z,30.2513,-88.0778,-1.72,22.88,2 
DISL,ioos:station:DISL:DISL:1,2015-11-05T00:30:00Z,30.2513,-88.0778,-1.72,22.9,2 
DISL,ioos:station:DISL:DISL:1,2015-11-05T01:00:00Z,30.2513,-88.0778,-1.72,22.87,2 
DISL,ioos:station:DISL:DISL:1,2015-11-05T01:30:00Z,30.2513,-88.0778,-1.72,22.9,2 
DISL,ioos:station:DISL:DISL:1,2015-11-05T02:00:00Z,30.2513,-88.0778,-1.72,22.87,2 
DISL,ioos:station:DISL:DISL:1,2015-11-05T02:30:00Z,30.2513,-88.0778,-1.72,22.83,2 
DISL,ioos:station:DISL:DISL:1,2015-11-05T03:00:00Z,30.2513,-88.0778,-1.72,22.86,2 
DISL,ioos:station:DISL:DISL:1,2015-11-05T03:30:00Z,30.2513,-88.0778,-1.72,23.02,2 
DISL,ioos:station:DISL:DISL:1,2015-11-05T04:00:00Z,30.2513,-88.0778,-1.72,23.13,2 
DISL,ioos:station:DISL:DISL:1,2015-11-05T04:30:00Z,30.2513,-88.0778,-1.72,23.34,2 
DISL,ioos:station:DISL:DISL:1,2015-11-05T05:00:00Z,30.2513,-88.0778,-1.72,23.57,2 
DISL,ioos:station:DISL:DISL:1,2015-11-05T05:30:00Z,30.2513,-88.0778,-1.72,23.67,2 
DISL,ioos:station:DISL:DISL:1,2015-11-05T06:00:00Z,30.2513,-88.0778,-1.72,23.73,2 
DISL,ioos:station:DISL:DISL:1,2015-11-05T06:30:00Z,30.2513,-88.0778,-1.72,23.69,2 
DISL,ioos:station:DISL:DISL:1,2015-11-05T07:00:00Z,30.2513,-88.0778,-1.72,23.58,2 
DISL,ioos:station:DISL:DISL:1,2015-11-05T07:30:00Z,30.2513,-88.0778,-1.72,23.24,2 
DISL,ioos:station:DISL:DISL:1,2015-11-05T08:00:00Z,30.2513,-88.0778,-1.72,23.07,2 
DISL,ioos:station:DISL:DISL:1,2015-11-05T08:30:00Z,30.2513,-88.0778,-1.72,22.92,2 
DISL,ioos:station:DISL:DISL:1,2015-11-05T09:00:00Z,30.2513,-88.0778,-1.72,22.94,2 
DISL,ioos:station:DISL:DISL:1,2015-11-05T09:30:00Z,30.2513,-88.0778,-1.72,22.96,2 
DISL,ioos:station:DISL:DISL:1,2015-11-05T10:00:00Z,30.2513,-88.0778,-1.72,22.99,2 
DISL,ioos:station:DISL:DISL:1,2015-11-05T10:30:00Z,30.2513,-88.0778,-1.72,22.97,2 
DISL,ioos:station:DISL:DISL:1,2015-11-05T11:00:00Z,30.2513,-88.0778,-1.72,22.99,2 
DISL,ioos:station:DISL:DISL:1,2015-11-05T11:30:00Z,30.2513,-88.0778,-1.72,22.98,2 
DISL,ioos:station:DISL:DISL:1,2015-11-05T12:00:00Z,30.2513,-88.0778,-1.72,22.92,2 
DISL,ioos:station:DISL:DISL:1,2015-11-05T12:30:00Z,30.2513,-88.0778,-1.72,22.86,2 
DISL,ioos:station:DISL:DISL:1,2015-11-05T13:00:00Z,30.2513,-88.0778,-1.72,22.78,2 
DISL,ioos:station:DISL:DISL:1,2015-11-05T13:30:00Z,30.2513,-88.0778,-1.72,22.67,2 
DISL,ioos:station:DISL:DISL:1,2015-11-05T14:00:00Z,30.2513,-88.0778,-1.72,22.7,2 
DISL,ioos:station:DISL:DISL:1,2015-11-05T14:30:00Z,30.2513,-88.0778,-1.72,22.69,2 
DISL,ioos:station:DISL:DISL:1,2015-11-05T15:00:00Z,30.2513,-88.0778,-1.72,22.73,2 
DISL,ioos:station:DISL:DISL:1,2015-11-05T15:30:00Z,30.2513,-88.0778,-1.72,22.96,2 
DISL,ioos:station:DISL:DISL:1,2015-11-05T16:00:00Z,30.2513,-88.0778,-1.72,23.19,2 
DISL,ioos:station:DISL:DISL:1,2015-11-05T16:30:00Z,30.2513,-88.0778,-1.72,23.19,2 
DISL,ioos:station:DISL:DISL:1,2015-11-05T17:00:00Z,30.2513,-88.0778,-1.72,23.17,2 
DISL,ioos:station:DISL:DISL:1,2015-11-05T17:30:00Z,30.2513,-88.0778,-1.72,23.17,2 
DISL,ioos:station:DISL:DISL:1,2015-11-05T18:00:00Z,30.2513,-88.0778,-1.72,23.3,2 
DISL,ioos:station:DISL:DISL:1,2015-11-05T18:30:00Z,30.2513,-88.0778,-1.72,23.29,2 
DISL,ioos:station:DISL:DISL:1,2015-11-05T19:00:00Z,30.2513,-88.0778,-1.72,23.38,2 
DISL,ioos:station:DISL:DISL:1,2015-11-05T19:30:00Z,30.2513,-88.0778,-1.72,23.48,2 
DISL,ioos:station:DISL:DISL:1,2015-11-05T20:00:00Z,30.2513,-88.0778,-1.72,22.98,2 
DISL,ioos:station:DISL:DISL:1,2015-11-05T20:30:00Z,30.2513,-88.0778,-1.72,22.96,2 
DISL,ioos:station:DISL:DISL:1,2015-11-05T21:00:00Z,30.2513,-88.0778,-1.72,22.96,2 
DISL,ioos:station:DISL:DISL:1,2015-11-05T21:30:00Z,30.2513,-88.0778,-1.72,22.95,2 
DISL,ioos:station:DISL:DISL:1,2015-11-05T22:00:00Z,30.2513,-88.0778,-1.72,22.91,2 
DISL,ioos:station:DISL:DISL:1,2015-11-05T22:30:00Z,30.2513,-88.0778,-1.72,22.91,2 
DISL,ioos:station:DISL:DISL:1,2015-11-05T23:00:00Z,30.2513,-88.0778,-1.72,23.07,2 
DISL,ioos:station:DISL:DISL:1,2015-11-05T23:30:00Z,30.2513,-88.0778,-1.72,23.07,2 
DISL,ioos:station:DISL:DISL:1,2015-11-06T00:00:00Z,30.2513,-88.0778,-1.72,23.15,2 
DISL,ioos:station:DISL:DISL:1,2015-11-06T00:30:00Z,30.2513,-88.0778,-1.72,23.14,2 
DISL,ioos:station:DISL:DISL:1,2015-11-06T01:00:00Z,30.2513,-88.0778,-1.72,23.1,2 
DISL,ioos:station:DISL:DISL:1,2015-11-06T01:30:00Z,30.2513,-88.0778,-1.72,23.15,2 
DISL,ioos:station:DISL:DISL:1,2015-11-06T02:00:00Z,30.2513,-88.0778,-1.72,23.14,2 
DISL,ioos:station:DISL:DISL:1,2015-11-06T02:30:00Z,30.2513,-88.0778,-1.72,23.19,2 
DISL,ioos:station:DISL:DISL:1,2015-11-06T03:00:00Z,30.2513,-88.0778,-1.72,23.26,2 
DISL,ioos:station:DISL:DISL:1,2015-11-06T03:30:00Z,30.2513,-88.0778,-1.72,23.25,2 
DISL,ioos:station:DISL:DISL:1,2015-11-06T04:00:00Z,30.2513,-88.0778,-1.72,23.23,2 
DISL,ioos:station:DISL:DISL:1,2015-11-06T04:30:00Z,30.2513,-88.0778,-1.72,23.23,2 
DISL,ioos:station:DISL:DISL:1,2015-11-06T05:00:00Z,30.2513,-88.0778,-1.72,23.23,2 
DISL,ioos:station:DISL:DISL:1,2015-11-06T05:30:00Z,30.2513,-88.0778,-1.72,23.25,2 
DISL,ioos:station:DISL:DISL:1,2015-11-06T06:00:00Z,30.2513,-88.0778,-1.72,23.24,2 
DISL,ioos:station:DISL:DISL:1,2015-11-06T06:30:00Z,30.2513,-88.0778,-1.72,23.28,2 
DISL,ioos:station:DISL:DISL:1,2015-11-06T07:00:00Z,30.2513,-88.0778,-1.72,23.04,2 
DISL,ioos:station:DISL:DISL:1,2015-11-06T07:30:00Z,30.2513,-88.0778,-1.72,22.92,2 
DISL,ioos:station:DISL:DISL:1,2015-11-06T08:00:00Z,30.2513,-88.0778,-1.72,22.85,2 
DISL,ioos:station:DISL:DISL:1,2015-11-06T08:30:00Z,30.2513,-88.0778,-1.72,22.72,2 
DISL,ioos:station:DISL:DISL:1,2015-11-06T09:00:00Z,30.2513,-88.0778,-1.72,22.77,2 
DISL,ioos:station:DISL:DISL:1,2015-11-06T09:30:00Z,30.2513,-88.0778,-1.72,22.78,2 
DISL,ioos:station:DISL:DISL:1,2015-11-06T10:00:00Z,30.2513,-88.0778,-1.72,22.74,2 
DISL,ioos:station:DISL:DISL:1,2015-11-06T10:30:00Z,30.2513,-88.0778,-1.72,22.72,2 
DISL,ioos:station:DISL:DISL:1,2015-11-06T11:00:00Z,30.2513,-88.0778,-1.72,22.71,2 
DISL,ioos:station:DISL:DISL:1,2015-11-06T11:30:00Z,30.2513,-88.0778,-1.72,22.72,2 
DISL,ioos:station:DISL:DISL:1,2015-11-06T12:00:00Z,30.2513,-88.0778,-1.72,22.69,2 
DISL,ioos:station:DISL:DISL:1,2015-11-06T12:30:00Z,30.2513,-88.0778,-1.72,22.7,2 
DISL,ioos:station:DISL:DISL:1,2015-11-06T13:00:00Z,30.2513,-88.0778,-1.72,22.75,2 
DISL,ioos:station:DISL:DISL:1,2015-11-06T13:30:00Z,30.2513,-88.0778,-1.72,22.81,2 
DISL,ioos:station:DISL:DISL:1,2015-11-06T14:00:00Z,30.2513,-88.0778,-1.72,22.95,2 
DISL,ioos:station:DISL:DISL:1,2015-11-06T14:30:00Z,30.2513,-88.0778,-1.72,23.07,2 
DISL,ioos:station:DISL:DISL:1,2015-11-06T15:00:00Z,30.2513,-88.0778,-1.72,23.16,2 
DISL,ioos:station:DISL:DISL:1,2015-11-06T15:30:00Z,30.2513,-88.0778,-1.72,23.16,2 
DISL,ioos:station:DISL:DISL:1,2015-11-06T16:00:00Z,30.2513,-88.0778,-1.72,23.22,2 
DISL,ioos:station:DISL:DISL:1,2015-11-06T16:30:00Z,30.2513,-88.0778,-1.72,23.36,2 
DISL,ioos:station:DISL:DISL:1,2015-11-06T17:00:00Z,30.2513,-88.0778,-1.72,23.41,2 
DISL,ioos:station:DISL:DISL:1,2015-11-06T17:30:00Z,30.2513,-88.0778,-1.72,23.51,2 
DISL,ioos:station:DISL:DISL:1,2015-11-06T18:00:00Z,30.2513,-88.0778,-1.72,23.5,2 
DISL,ioos:station:DISL:DISL:1,2015-11-06T18:30:00Z,30.2513,-88.0778,-1.72,24.14,2 
DISL,ioos:station:DISL:DISL:1,2015-11-06T19:00:00Z,30.2513,-88.0778,-1.72,24.18,2 
DISL,ioos:station:DISL:DISL:1,2015-11-06T19:30:00Z,30.2513,-88.0778,-1.72,24.35,2 
DISL,ioos:station:DISL:DISL:1,2015-11-06T20:00:00Z,30.2513,-88.0778,-1.72,24.24,2 
DISL,ioos:station:DISL:DISL:1,2015-11-06T20:30:00Z,30.2513,-88.0778,-1.72,24.29,2 
DISL,ioos:station:DISL:DISL:1,2015-11-06T21:00:00Z,30.2513,-88.0778,-1.72,24.23,2 
DISL,ioos:station:DISL:DISL:1,2015-11-06T21:30:00Z,30.2513,-88.0778,-1.72,24.04,2 
DISL,ioos:station:DISL:DISL:1,2015-11-06T22:00:00Z,30.2513,-88.0778,-1.72,24.14,2 
DISL,ioos:station:DISL:DISL:1,2015-11-06T22:30:00Z,30.2513,-88.0778,-1.72,23.86,2 
DISL,ioos:station:DISL:DISL:1,2015-11-06T23:00:00Z,30.2513,-88.0778,-1.72,23.96,2 
DISL,ioos:station:DISL:DISL:1,2015-11-06T23:30:00Z,30.2513,-88.0778,-1.72,23.97,2 